Location: Peebles
(55.6412°N, 3.1714°W)
Time: 12:22:32
(UTC+00:00)

RS-15 - Pass Details

Date: 01 December 2023
Orbit: 1893 x 2151 km, 64.8° (Epoch: 02 March)

Event Time Altitude Azimuth Distance (km) Brightness Sun altitude
Exits shadow 02:48:48 55° 350° (N) 2,337 8.3 -44.1°
Maximum altitude 02:50:06 57° 12° (NNE) 2,286 8.3 -44.0°
Drops below altitude 10° 03:01:09 10° 91° (E) 4,353 10.4 -42.6°
Sets 03:04:29 0° 96° (E) 5,326 10.9 -42.2°
